| time (UTC) | temp F | wind direction | speed MPH | gust MPH | rain 1hr in | rain 24hr in | rain mn in | humidity % | barometer mb |
| 20260902023853 | 90 | 76 | 0.0 | 1.0 | 0.00 | 0.00 | 0.00 | 55 | 1012.7 |
| 20260902023348 | 90 | 76 | 0.0 | 0.0 | 0.00 | 0.00 | 0.00 | 55 | 1012.7 |
| 20260902022847 | 91 | 72 | 0.0 | 0.0 | 0.00 | 0.00 | 0.00 | 55 | 1012.6 |
| 20260902022342 | 91 | 68 | 0.0 | 1.0 | 0.00 | 0.00 | 0.00 | 55 | 1012.4 |
| 20260902021838 | 91 | 71 | 0.0 | 1.0 | 0.00 | 0.00 | 0.00 | 54 | 1012.3 |
| 20260902021333 | 91 | 75 | 0.0 | 0.0 | 0.00 | 0.00 | 0.00 | 53 | 1012.3 |
| 20260902020828 | 92 | 75 | 0.0 | 3.0 | 0.00 | 0.00 | 0.00 | 52 | 1012.2 |
| 20260902020325 | 92 | 54 | 1.0 | 5.0 | 0.00 | 0.00 | 0.00 | 52 | 1012.2 |
| 20260902015820 | 92 | 47 | 0.0 | 1.0 | 0.00 | 0.00 | 0.00 | 50 | 1012.3 |
| 20260902015316 | 92 | 87 | 0.0 | 1.0 | 0.00 | 0.00 | 0.00 | 49 | 1012.1 |
| 20260902014811 | 92 | 70 | 0.0 | 1.0 | 0.00 | 0.00 | 0.00 | 49 | 1011.8 |
| 20260902014308 | 92 | 76 | 0.0 | 0.0 | 0.00 | 0.00 | 0.00 | 49 | 1011.8 |
| 20260902013806 | 92 | 76 | 1.0 | 1.0 | 0.00 | 0.00 | 0.00 | 50 | 1011.6 |
| 20260902013302 | 92 | 74 | 0.0 | 0.0 | 0.00 | 0.00 | 0.00 | 49 | 1011.4 |
| 20260902012757 | 92 | 77 | 0.0 | 0.0 | 0.00 | 0.00 | 0.00 | 49 | 1011.4 |
| 20260902012253 | 92 | 76 | 0.0 | 1.0 | 0.00 | 0.00 | 0.00 | 49 | 1011.4 |
| 20260902011749 | 92 | 77 | 0.0 | 0.0 | 0.00 | 0.00 | 0.00 | 49 | 1011.6 |
| 20260902011248 | 93 | 74 | 0.0 | 0.0 | 0.00 | 0.00 | 0.00 | 48 | 1011.6 |
| 20260902010741 | 93 | 75 | 0.0 | 0.0 | 0.00 | 0.00 | 0.00 | 48 | 1011.4 |
| 20260902010237 | 93 | 74 | 0.0 | 0.0 | 0.00 | 0.00 | 0.00 | 48 | 1011.4 |
| 20260902005736 | 94 | 74 | 0.0 | 0.0 | 0.00 | 0.00 | 0.00 | 47 | 1011.3 |
| 20260902005231 | 94 | 76 | 0.0 | 1.0 | 0.00 | 0.00 | 0.00 | 46 | 1011.2 |
| 20260902004725 | 94 | 72 | 0.0 | 0.0 | 0.00 | 0.00 | 0.00 | 46 | 1011.2 |
| 20260902004220 | 94 | 81 | 0.0 | 1.0 | 0.00 | 0.00 | 0.00 | 45 | 1011.4 |
| 20260902003715 | 95 | 83 | 0.0 | 2.0 | 0.00 | 0.00 | 0.00 | 45 | 1011.5 |
| 20260902003211 | 95 | 84 | 0.0 | 0.0 | 0.00 | 0.00 | 0.00 | 45 | 1011.6 |
| 20260902002706 | 95 | 75 | 0.0 | 1.0 | 0.00 | 0.00 | 0.00 | 44 | 1011.6 |
| 20260902002200 | 95 | 76 | 0.0 | 1.0 | 0.00 | 0.00 | 0.00 | 44 | 1011.5 |
| 20260902001655 | 96 | 56 | 2.0 | 3.0 | 0.00 | 0.00 | 0.00 | 43 | 1011.7 |
| 20260902001150 | 96 | 77 | 0.0 | 1.0 | 0.00 | 0.00 | 0.00 | 43 | 1011.6 |
| 20260902000645 | 96 | 74 | 0.0 | 5.0 | 0.00 | 0.00 | 0.00 | 43 | 1011.8 |
| 20260902000140 | 96 | 68 | 1.0 | 2.0 | 0.00 | 0.00 | 0.00 | 43 | 1011.8 |
| 20260901235640 | 96 | 72 | 0.0 | 5.0 | 0.00 | 0.00 | 0.00 | 44 | 1011.8 |
| 20260901235135 | 96 | 80 | 1.0 | 1.0 | 0.00 | 0.00 | 0.00 | 44 | 1011.7 |
| 20260901234634 | 96 | 71 | 0.0 | 2.0 | 0.00 | 0.00 | 0.00 | 43 | 1011.7 |
| 20260901234130 | 96 | 74 | 0.0 | 2.0 | 0.00 | 0.00 | 0.00 | 43 | 1011.7 |
| 20260901233624 | 96 | 73 | 1.0 | 2.0 | 0.00 | 0.00 | 0.00 | 43 | 1011.8 |
| 20260901233121 | 97 | 92 | 0.0 | 1.0 | 0.00 | 0.00 | 0.00 | 42 | 1011.8 |
| 20260901232620 | 97 | 105 | 1.0 | 3.0 | 0.00 | 0.00 | 0.00 | 43 | 1011.7 |
| 20260901232115 | 97 | 86 | 1.0 | 2.0 | 0.00 | 0.00 | 0.00 | 42 | 1012.0 |
| 20260901231613 | 98 | 121 | 1.0 | 1.0 | 0.00 | 0.00 | 0.00 | 42 | 1011.9 |
| 20260901231108 | 98 | 127 | 2.0 | 3.0 | 0.00 | 0.00 | 0.00 | 41 | 1011.9 |
| 20260901230604 | 99 | 127 | 1.0 | 7.0 | 0.00 | 0.00 | 0.00 | 40 | 1011.8 |
| 20260901230103 | 100 | 80 | 1.0 | 5.0 | 0.00 | 0.00 | 0.00 | 40 | 1011.9 |
| 20260901225559 | 100 | 96 | 0.0 | 3.0 | 0.00 | 0.00 | 0.00 | 40 | 1011.9 |
| 20260901225058 | 100 | 36 | 2.0 | 3.0 | 0.00 | 0.00 | 0.00 | 39 | 1011.8 |
| 20260901224554 | 100 | 70 | 3.0 | 3.0 | 0.00 | 0.00 | 0.00 | 39 | 1012.0 |
| 20260901224050 | 101 | 96 | 0.0 | 1.0 | 0.00 | 0.00 | 0.00 | 38 | 1011.9 |
| 20260901223546 | 99 | 95 | 1.0 | 2.0 | 0.00 | 0.00 | 0.00 | 39 | 1011.7 |
| 20260901223041 | 101 | 94 | 0.0 | 1.0 | 0.00 | 0.00 | 0.00 | 38 | 1011.7 |
| 20260901222537 | 100 | 61 | 3.0 | 5.0 | 0.00 | 0.00 | 0.00 | 38 | 1011.8 |
| 20260901222033 | 100 | 118 | 2.0 | 6.0 | 0.00 | 0.00 | 0.00 | 39 | 1011.9 |
| 20260901221529 | 101 | 96 | 2.0 | 3.0 | 0.00 | 0.00 | 0.00 | 38 | 1011.8 |
| 20260901221024 | 101 | 75 | 0.0 | 2.0 | 0.00 | 0.00 | 0.00 | 38 | 1012.0 |
| 20260901220523 | 101 | 74 | 1.0 | 2.0 | 0.00 | 0.00 | 0.00 | 38 | 1012.0 |
| 20260901220022 | 101 | 62 | 1.0 | 3.0 | 0.00 | 0.00 | 0.00 | 38 | 1012.0 |
| 20260901215521 | 101 | 64 | 0.0 | 0.0 | 0.00 | 0.00 | 0.00 | 38 | 1011.8 |
| 20260901215021 | 101 | 80 | 1.0 | 3.0 | 0.00 | 0.00 | 0.00 | 38 | 1012.1 |
| 20260901214519 | 101 | 84 | 0.0 | 2.0 | 0.00 | 0.00 | 0.00 | 39 | 1012.1 |
| 20260901214014 | 101 | 54 | 3.0 | 5.0 | 0.00 | 0.00 | 0.00 | 38 | 1012.1 |
| 20260901213508 | 100 | 68 | 1.0 | 5.0 | 0.00 | 0.00 | 0.00 | 39 | 1012.3 |
| 20260901213002 | 100 | 64 | 2.0 | 2.0 | 0.00 | 0.00 | 0.00 | 39 | 1012.4 |
| 20260901212457 | 100 | 105 | 1.0 | 5.0 | 0.00 | 0.00 | 0.00 | 40 | 1012.3 |
| 20260901211954 | 100 | 106 | 1.0 | 3.0 | 0.00 | 0.00 | 0.00 | 40 | 1012.5 |
| 20260901211449 | 101 | 56 | 3.0 | 3.0 | 0.00 | 0.00 | 0.00 | 39 | 1012.5 |
| 20260901210944 | 100 | 75 | 1.0 | 2.0 | 0.00 | 0.00 | 0.00 | 40 | 1012.5 |
| 20260901210440 | 98 | 106 | 2.0 | 3.0 | 0.00 | 0.00 | 0.00 | 42 | 1012.5 |
| 20260901205936 | 100 | 78 | 2.0 | 6.0 | 0.00 | 0.00 | 0.00 | 42 | 1012.5 |
| 20260901205430 | 100 | 84 | 1.0 | 6.0 | 0.00 | 0.00 | 0.00 | 40 | 1012.8 |
| 20260901204925 | 99 | 9 | 0.0 | 2.0 | 0.00 | 0.00 | 0.00 | 42 | 1012.7 |
| 20260901204422 | 100 | 132 | 3.0 | 6.0 | 0.00 | 0.00 | 0.00 | 41 | 1012.7 |
| 20260901203922 | 100 | 89 | 0.0 | 5.0 | 0.00 | 0.00 | 0.00 | 41 | 1013.0 |
| 20260901203416 | 100 | 64 | 3.0 | 5.0 | 0.00 | 0.00 | 0.00 | 41 | 1012.8 |
| 20260901202912 | 99 | 104 | 0.0 | 3.0 | 0.00 | 0.00 | 0.00 | 41 | 1013.1 |
| 20260901202406 | 99 | 91 | 4.0 | 5.0 | 0.00 | 0.00 | 0.00 | 41 | 1013.0 |
| 20260901201902 | 99 | 84 | 3.0 | 6.0 | 0.00 | 0.00 | 0.00 | 42 | 1013.0 |
| 20260901201402 | 98 | 60 | 3.0 | 5.0 | 0.00 | 0.00 | 0.00 | 42 | 1013.3 |
| 20260901200856 | 99 | 81 | 2.0 | 5.0 | 0.00 | 0.00 | 0.00 | 42 | 1013.3 |
| 20260901200351 | 100 | 79 | 2.0 | 3.0 | 0.00 | 0.00 | 0.00 | 41 | 1013.4 |
| 20260901195850 | 100 | 110 | 1.0 | 2.0 | 0.00 | 0.00 | 0.00 | 41 | 1013.6 |
| 20260901195343 | 100 | 62 | 0.0 | 5.0 | 0.00 | 0.00 | 0.00 | 41 | 1013.3 |
| 20260901194838 | 99 | 79 | 1.0 | 3.0 | 0.00 | 0.00 | 0.00 | 42 | 1013.5 |
| 20260901194333 | 100 | 65 | 0.0 | 0.0 | 0.00 | 0.00 | 0.00 | 40 | 1013.5 |
| 20260901193830 | 99 | 68 | 0.0 | 1.0 | 0.00 | 0.00 | 0.00 | 42 | 1013.6 |
| 20260901193328 | 99 | 115 | 1.0 | 6.0 | 0.00 | 0.00 | 0.00 | 43 | 1013.7 |
| 20260901192822 | 99 | 102 | 2.0 | 5.0 | 0.00 | 0.00 | 0.00 | 42 | 1013.7 |
| 20260901192318 | 99 | 77 | 1.0 | 2.0 | 0.00 | 0.00 | 0.00 | 42 | 1013.8 |
| 20260901191815 | 99 | 90 | 2.0 | 7.0 | 0.00 | 0.00 | 0.00 | 42 | 1013.9 |
| 20260901191310 | 100 | 73 | 0.0 | 3.0 | 0.00 | 0.00 | 0.00 | 42 | 1013.8 |
| 20260901190806 | 98 | 55 | 1.0 | 2.0 | 0.00 | 0.00 | 0.00 | 43 | 1014.2 |
| 20260901190306 | 98 | 34 | 3.0 | 3.0 | 0.00 | 0.00 | 0.00 | 42 | 1013.9 |
| 20260901185804 | 99 | 32 | 4.0 | 6.0 | 0.00 | 0.00 | 0.00 | 42 | 1014.2 |
| 20260901185305 | 98 | 69 | 1.0 | 3.0 | 0.00 | 0.00 | 0.00 | 43 | 1014.3 |
| 20260901184758 | 98 | 113 | 3.0 | 6.0 | 0.00 | 0.00 | 0.00 | 42 | 1014.4 |
| 20260901184254 | 97 | 225 | 1.0 | 2.0 | 0.00 | 0.00 | 0.00 | 45 | 1014.3 |
| 20260901183750 | 97 | 80 | 1.0 | 5.0 | 0.00 | 0.00 | 0.00 | 45 | 1014.8 |
| 20260901183249 | 97 | 63 | 1.0 | 3.0 | 0.00 | 0.00 | 0.00 | 44 | 1014.7 |
| 20260901182745 | 96 | 114 | 2.0 | 5.0 | 0.00 | 0.00 | 0.00 | 46 | 1014.7 |
| 20260901182244 | 96 | 80 | 0.0 | 3.0 | 0.00 | 0.00 | 0.00 | 47 | 1014.8 |
| 20260901181739 | 97 | 63 | 1.0 | 5.0 | 0.00 | 0.00 | 0.00 | 47 | 1014.8 |
| 20260901181234 | 98 | 358 | 2.0 | 5.0 | 0.00 | 0.00 | 0.00 | 46 | 1014.9 |
| 20260901180733 | 97 | 84 | 2.0 | 5.0 | 0.00 | 0.00 | 0.00 | 47 | 1014.9 |
| 20260901180232 | 96 | 111 | 1.0 | 2.0 | 0.00 | 0.00 | 0.00 | 48 | 1015.0 |
| 20260901175731 | 95 | 67 | 0.0 | 1.0 | 0.00 | 0.00 | 0.00 | 50 | 1015.1 |
| 20260901175226 | 95 | 54 | 4.0 | 5.0 | 0.00 | 0.00 | 0.00 | 50 | 1015.4 |
| 20260901174721 | 94 | 80 | 0.0 | 1.0 | 0.00 | 0.00 | 0.00 | 50 | 1015.4 |
| 20260901174217 | 95 | 70 | 0.0 | 1.0 | 0.00 | 0.00 | 0.00 | 49 | 1015.5 |
| 20260901173713 | 96 | 75 | 0.0 | 1.0 | 0.00 | 0.00 | 0.00 | 48 | 1015.4 |
| 20260901173208 | 98 | 78 | 0.0 | 3.0 | 0.00 | 0.00 | 0.00 | 46 | 1015.4 |
| 20260901172704 | 98 | 76 | 0.0 | 1.0 | 0.00 | 0.00 | 0.00 | 46 | 1015.7 |
| 20260901172203 | 98 | 115 | 2.0 | 5.0 | 0.00 | 0.00 | 0.00 | 45 | 1015.6 |
| 20260901171701 | 98 | 76 | 0.0 | 1.0 | 0.00 | 0.00 | 0.00 | 46 | 1015.7 |
| 20260901171155 | 97 | 77 | 0.0 | 2.0 | 0.00 | 0.00 | 0.00 | 47 | 1015.7 |
| 20260901170654 | 96 | 150 | 1.0 | 2.0 | 0.00 | 0.00 | 0.00 | 48 | 1016.0 |
| 20260901170149 | 96 | 45 | 1.0 | 3.0 | 0.00 | 0.00 | 0.00 | 49 | 1015.8 |
| 20260901165648 | 96 | 51 | 1.0 | 1.0 | 0.00 | 0.00 | 0.00 | 48 | 1016.0 |
| 20260901165143 | 95 | 77 | 0.0 | 2.0 | 0.00 | 0.00 | 0.00 | 49 | 1016.2 |
| 20260901164639 | 95 | 81 | 0.0 | 1.0 | 0.00 | 0.00 | 0.00 | 49 | 1016.0 |
| 20260901164134 | 96 | 99 | 0.0 | 2.0 | 0.00 | 0.00 | 0.00 | 48 | 1016.3 |
| 20260901163630 | 95 | 93 | 2.0 | 3.0 | 0.00 | 0.00 | 0.00 | 49 | 1016.1 |
| 20260901163128 | 95 | 35 | 3.0 | 3.0 | 0.00 | 0.00 | 0.00 | 49 | 1016.0 |
| 20260901162624 | 95 | 100 | 1.0 | 1.0 | 0.00 | 0.00 | 0.00 | 49 | 1016.3 |
| 20260901162123 | 95 | 155 | 1.0 | 2.0 | 0.00 | 0.00 | 0.00 | 50 | 1015.8 |
| 20260901161623 | 95 | 99 | 1.0 | 1.0 | 0.00 | 0.00 | 0.00 | 49 | 1016.0 |
| 20260901161122 | 95 | 119 | 0.0 | 1.0 | 0.00 | 0.00 | 0.00 | 50 | 1016.2 |
| 20260901160619 | 95 | 83 | 0.0 | 1.0 | 0.00 | 0.00 | 0.00 | 50 | 1016.2 |
| 20260901160114 | 95 | 85 | 0.0 | 2.0 | 0.00 | 0.00 | 0.00 | 50 | 1016.0 |
| 20260901155613 | 95 | 74 | 0.0 | 3.0 | 0.00 | 0.00 | 0.00 | 50 | 1016.2 |
| 20260901155109 | 94 | 124 | 1.0 | 1.0 | 0.00 | 0.00 | 0.00 | 50 | 1016.3 |
| 20260901154608 | 94 | 86 | 0.0 | 1.0 | 0.00 | 0.00 | 0.00 | 52 | 1016.1 |
| 20260901154103 | 94 | 70 | 0.0 | 1.0 | 0.00 | 0.00 | 0.00 | 51 | 1016.0 |
| 20260901153558 | 94 | 89 | 0.0 | 1.0 | 0.00 | 0.00 | 0.00 | 52 | 1016.0 |
| 20260901153051 | 94 | 116 | 0.0 | 1.0 | 0.00 | 0.00 | 0.00 | 51 | 1016.1 |
| 20260901152547 | 93 | 70 | 0.0 | 1.0 | 0.00 | 0.00 | 0.00 | 54 | 1016.0 |
| 20260901152045 | 93 | 108 | 1.0 | 2.0 | 0.00 | 0.00 | 0.00 | 54 | 1016.2 |
| 20260901151541 | 93 | 81 | 0.0 | 0.0 | 0.00 | 0.00 | 0.00 | 53 | 1016.0 |
| 20260901151035 | 93 | 83 | 0.0 | 2.0 | 0.00 | 0.00 | 0.00 | 54 | 1016.0 |
| 20260901150533 | 92 | 72 | 0.0 | 2.0 | 0.00 | 0.00 | 0.00 | 55 | 1016.1 |
| 20260901150032 | 91 | 89 | 1.0 | 3.0 | 0.00 | 0.00 | 0.00 | 57 | 1016.0 |
| 20260901145530 | 92 | 172 | 1.0 | 1.0 | 0.00 | 0.00 | 0.00 | 55 | 1016.3 |
| 20260901145025 | 92 | 81 | 0.0 | 1.0 | 0.00 | 0.00 | 0.00 | 56 | 1016.1 |
| 20260901144521 | 92 | 76 | 0.0 | 3.0 | 0.00 | 0.00 | 0.00 | 57 | 1015.9 |
| 20260901144015 | 91 | 74 | 0.0 | 2.0 | 0.00 | 0.00 | 0.00 | 58 | 1016.1 |
| 20260901143511 | 91 | 88 | 0.0 | 2.0 | 0.00 | 0.00 | 0.00 | 57 | 1016.1 |
| 20260901143007 | 90 | 74 | 0.0 | 0.0 | 0.00 | 0.00 | 0.00 | 59 | 1016.2 |
| 20260901142502 | 89 | 74 | 0.0 | 1.0 | 0.00 | 0.00 | 0.00 | 60 | 1016.2 |
| 20260901141956 | 89 | 79 | 0.0 | 1.0 | 0.00 | 0.00 | 0.00 | 61 | 1016.3 |
| 20260901141450 | 88 | 188 | 2.0 | 2.0 | 0.00 | 0.00 | 0.00 | 61 | 1016.3 |
| 20260901140946 | 88 | 99 | 1.0 | 1.0 | 0.00 | 0.00 | 0.00 | 62 | 1016.3 |
| 20260901140443 | 87 | 95 | 1.0 | 1.0 | 0.00 | 0.00 | 0.00 | 64 | 1016.4 |
| 20260901135938 | 87 | 73 | 0.0 | 2.0 | 0.00 | 0.00 | 0.00 | 64 | 1016.4 |
| 20260901135433 | 87 | 80 | 0.0 | 2.0 | 0.00 | 0.00 | 0.00 | 64 | 1016.4 |
| 20260901134929 | 86 | 66 | 2.0 | 2.0 | 0.00 | 0.00 | 0.00 | 64 | 1016.0 |
| 20260901134425 | 85 | 73 | 0.0 | 1.0 | 0.00 | 0.00 | 0.00 | 66 | 1016.4 |
| 20260901133924 | 84 | 64 | 0.0 | 1.0 | 0.00 | 0.00 | 0.00 | 67 | 1016.3 |
| 20260901133423 | 83 | 67 | 2.0 | 2.0 | 0.00 | 0.00 | 0.00 | 69 | 1016.2 |
| 20260901132922 | 82 | 88 | 1.0 | 2.0 | 0.00 | 0.00 | 0.00 | 71 | 1016.1 |
| 20260901132417 | 82 | 72 | 0.0 | 0.0 | 0.00 | 0.00 | 0.00 | 71 | 1016.2 |
| 20260901131916 | 81 | 82 | 1.0 | 2.0 | 0.00 | 0.00 | 0.00 | 72 | 1016.1 |
| 20260901131416 | 81 | 73 | 0.0 | 1.0 | 0.00 | 0.00 | 0.00 | 72 | 1016.2 |
| 20260901130912 | 81 | 69 | 0.0 | 1.0 | 0.00 | 0.00 | 0.00 | 72 | 1016.2 |
| 20260901130406 | 80 | 72 | 0.0 | 1.0 | 0.00 | 0.00 | 0.00 | 73 | 1016.1 |
| 20260901125904 | 80 | 78 | 0.0 | 1.0 | 0.00 | 0.00 | 0.00 | 72 | 1015.9 |
| 20260901125403 | 80 | 84 | 0.0 | 1.0 | 0.00 | 0.00 | 0.00 | 72 | 1015.9 |
| 20260901124858 | 80 | 76 | 0.0 | 1.0 | 0.00 | 0.00 | 0.00 | 73 | 1015.7 |
| 20260901124354 | 80 | 76 | 0.0 | 1.0 | 0.00 | 0.00 | 0.00 | 73 | 1015.7 |
| 20260901123853 | 79 | 76 | 0.0 | 0.0 | 0.00 | 0.00 | 0.00 | 74 | 1015.7 |
| 20260901123348 | 79 | 67 | 0.0 | 0.0 | 0.00 | 0.00 | 0.00 | 74 | 1015.5 |
| 20260901122846 | 79 | 75 | 0.0 | 0.0 | 0.00 | 0.00 | 0.00 | 74 | 1015.6 |
| 20260901122341 | 79 | 75 | 0.0 | 0.0 | 0.00 | 0.00 | 0.00 | 74 | 1015.3 |
| 20260901121840 | 79 | 75 | 0.0 | 0.0 | 0.00 | 0.00 | 0.00 | 74 | 1015.5 |
| 20260901121336 | 79 | 75 | 0.0 | 0.0 | 0.00 | 0.00 | 0.00 | 73 | 1015.3 |
| 20260901120830 | 79 | 75 | 0.0 | 0.0 | 0.00 | 0.00 | 0.00 | 73 | 1015.4 |
| 20260901120325 | 79 | 75 | 0.0 | 0.0 | 0.00 | 0.00 | 0.00 | 73 | 1015.2 |
| 20260901115821 | 79 | 76 | 0.0 | 0.0 | 0.00 | 0.00 | 0.00 | 73 | 1015.0 |
| 20260901115316 | 80 | 71 | 0.0 | 0.0 | 0.00 | 0.00 | 0.00 | 72 | 1015.1 |
| 20260901114814 | 80 | 72 | 0.0 | 0.0 | 0.00 | 0.00 | 0.00 | 71 | 1015.2 |
| 20260901114308 | 80 | 68 | 0.0 | 0.0 | 0.00 | 0.00 | 0.00 | 71 | 1015.2 |
| 20260901113806 | 80 | 75 | 0.0 | 0.0 | 0.00 | 0.00 | 0.00 | 71 | 1015.0 |
| 20260901113301 | 80 | 73 | 0.0 | 0.0 | 0.00 | 0.00 | 0.00 | 70 | 1015.0 |
| 20260901112756 | 81 | 72 | 0.0 | 0.0 | 0.00 | 0.00 | 0.00 | 70 | 1014.7 |
| 20260901112256 | 80 | 80 | 0.0 | 0.0 | 0.00 | 0.00 | 0.00 | 70 | 1014.9 |
| 20260901111751 | 81 | 73 | 0.0 | 0.0 | 0.00 | 0.00 | 0.00 | 70 | 1014.7 |
| 20260901111249 | 81 | 72 | 0.0 | 0.0 | 0.00 | 0.00 | 0.00 | 69 | 1014.8 |
| 20260901110749 | 81 | 70 | 0.0 | 1.0 | 0.00 | 0.00 | 0.00 | 69 | 1014.6 |
| 20260901110244 | 81 | 76 | 0.0 | 0.0 | 0.00 | 0.00 | 0.00 | 69 | 1014.7 |
| 20260901105741 | 82 | 73 | 0.0 | 0.0 | 0.00 | 0.00 | 0.00 | 68 | 1014.7 |
| 20260901105240 | 82 | 74 | 0.0 | 1.0 | 0.00 | 0.00 | 0.00 | 68 | 1014.9 |
| 20260901104736 | 82 | 80 | 0.0 | 1.0 | 0.00 | 0.00 | 0.00 | 68 | 1014.7 |
| 20260901104232 | 82 | 72 | 0.0 | 0.0 | 0.00 | 0.00 | 0.00 | 68 | 1014.8 |
| 20260901103731 | 82 | 74 | 0.0 | 0.0 | 0.00 | 0.00 | 0.00 | 67 | 1014.7 |
| 20260901103226 | 82 | 82 | 0.0 | 1.0 | 0.00 | 0.00 | 0.00 | 67 | 1015.0 |
| 20260901102721 | 82 | 75 | 0.0 | 0.0 | 0.00 | 0.00 | 0.00 | 67 | 1014.7 |
| 20260901102220 | 82 | 66 | 0.0 | 0.0 | 0.00 | 0.00 | 0.00 | 67 | 1014.9 |
| 20260901101716 | 82 | 75 | 0.0 | 0.0 | 0.00 | 0.00 | 0.00 | 68 | 1014.7 |
| 20260901101211 | 82 | 72 | 0.0 | 0.0 | 0.00 | 0.00 | 0.00 | 67 | 1014.7 |
| 20260901100711 | 82 | 81 | 0.0 | 2.0 | 0.00 | 0.00 | 0.00 | 67 | 1014.7 |
| 20260901100206 | 82 | 76 | 0.0 | 1.0 | 0.00 | 0.00 | 0.00 | 67 | 1014.8 |
| 20260901095704 | 82 | 76 | 0.0 | 1.0 | 0.00 | 0.00 | 0.00 | 67 | 1014.9 |
| 20260901095201 | 82 | 88 | 0.0 | 0.0 | 0.00 | 0.00 | 0.00 | 67 | 1014.6 |
| 20260901094656 | 82 | 77 | 0.0 | 1.0 | 0.00 | 0.00 | 0.00 | 67 | 1014.8 |
| 20260901094156 | 82 | 70 | 0.0 | 0.0 | 0.00 | 0.00 | 0.00 | 67 | 1014.8 |
| 20260901093651 | 82 | 77 | 0.0 | 0.0 | 0.00 | 0.00 | 0.00 | 67 | 1014.8 |
| 20260901093150 | 82 | 77 | 0.0 | 0.0 | 0.00 | 0.00 | 0.00 | 66 | 1015.0 |
| 20260901092646 | 82 | 74 | 1.0 | 1.0 | 0.00 | 0.00 | 0.00 | 66 | 1014.8 |
| 20260901092142 | 82 | 76 | 0.0 | 1.0 | 0.00 | 0.00 | 0.00 | 66 | 1015.0 |
| 20260901091637 | 82 | 72 | 0.0 | 0.0 | 0.00 | 0.00 | 0.00 | 66 | 1014.8 |
| 20260901091132 | 82 | 70 | 0.0 | 0.0 | 0.00 | 0.00 | 0.00 | 65 | 1014.8 |
| 20260901090627 | 83 | 76 | 0.0 | 0.0 | 0.00 | 0.00 | 0.00 | 65 | 1014.9 |
| 20260901090123 | 83 | 73 | 0.0 | 0.0 | 0.00 | 0.00 | 0.00 | 64 | 1015.0 |
| 20260901085619 | 83 | 80 | 0.0 | 0.0 | 0.00 | 0.00 | 0.00 | 64 | 1014.9 |
| 20260901085114 | 83 | 73 | 0.0 | 0.0 | 0.00 | 0.00 | 0.00 | 64 | 1015.0 |
| 20260901084610 | 83 | 105 | 0.0 | 1.0 | 0.00 | 0.00 | 0.00 | 64 | 1014.9 |
| 20260901084106 | 83 | 89 | 0.0 | 1.0 | 0.00 | 0.00 | 0.00 | 64 | 1014.7 |
| 20260901083600 | 83 | 82 | 2.0 | 3.0 | 0.00 | 0.00 | 0.00 | 63 | 1014.6 |
| 20260901083058 | 84 | 72 | 1.0 | 2.0 | 0.00 | 0.00 | 0.00 | 62 | 1014.4 |
| 20260901082553 | 85 | 62 | 1.0 | 3.0 | 0.00 | 0.00 | 0.00 | 61 | 1014.7 |
| 20260901082048 | 85 | 76 | 0.0 | 1.0 | 0.00 | 0.00 | 0.00 | 60 | 1014.7 |
| 20260901081543 | 85 | 92 | 0.0 | 2.0 | 0.00 | 0.00 | 0.00 | 60 | 1014.4 |
| 20260901081038 | 85 | 77 | 0.0 | 3.0 | 0.00 | 0.00 | 0.00 | 60 | 1014.3 |
| 20260901080538 | 85 | 88 | 0.0 | 1.0 | 0.00 | 0.00 | 0.00 | 59 | 1014.5 |
| 20260901080032 | 85 | 87 | 0.0 | 0.0 | 0.00 | 0.00 | 0.00 | 59 | 1014.3 |
| 20260901075528 | 85 | 70 | 0.0 | 1.0 | 0.00 | 0.00 | 0.00 | 59 | 1014.3 |
| 20260901075027 | 85 | 78 | 0.0 | 1.0 | 0.00 | 0.00 | 0.00 | 59 | 1014.5 |
| 20260901074526 | 85 | 74 | 0.0 | 2.0 | 0.00 | 0.00 | 0.00 | 59 | 1014.4 |
| 20260901074022 | 84 | 99 | 1.0 | 2.0 | 0.00 | 0.00 | 0.00 | 60 | 1014.5 |
| 20260901073518 | 84 | 81 | 0.0 | 0.0 | 0.00 | 0.00 | 0.00 | 60 | 1014.5 |
| 20260901073013 | 84 | 73 | 0.0 | 1.0 | 0.00 | 0.00 | 0.00 | 60 | 1014.6 |
| 20260901072508 | 84 | 83 | 0.0 | 1.0 | 0.00 | 0.00 | 0.00 | 59 | 1014.6 |
| 20260901072002 | 84 | 82 | 0.0 | 0.0 | 0.00 | 0.00 | 0.00 | 59 | 1014.5 |
| 20260901071502 | 84 | 73 | 0.0 | 0.0 | 0.00 | 0.00 | 0.00 | 59 | 1014.5 |
| 20260901070955 | 84 | 73 | 0.0 | 0.0 | 0.00 | 0.00 | 0.00 | 58 | 1014.6 |
| 20260901070451 | 84 | 73 | 0.0 | 0.0 | 0.00 | 0.00 | 0.00 | 58 | 1014.6 |
| 20260901065949 | 84 | 80 | 0.0 | 0.0 | 0.00 | 0.00 | 0.00 | 57 | 1014.7 |
| 20260901065446 | 84 | 75 | 0.0 | 1.0 | 0.00 | 0.00 | 0.00 | 57 | 1014.4 |
| 20260901064940 | 84 | 73 | 0.0 | 1.0 | 0.00 | 0.00 | 0.00 | 57 | 1014.5 |
| 20260901064436 | 85 | 79 | 0.0 | 0.0 | 0.00 | 0.00 | 0.00 | 57 | 1014.5 |
| 20260901063934 | 85 | 77 | 0.0 | 1.0 | 0.00 | 0.00 | 0.00 | 56 | 1014.5 |
| 20260901063430 | 85 | 75 | 1.0 | 1.0 | 0.00 | 0.00 | 0.00 | 56 | 1014.6 |
| 20260901062926 | 85 | 76 | 0.0 | 1.0 | 0.00 | 0.00 | 0.00 | 56 | 1014.4 |
| 20260901062421 | 85 | 75 | 0.0 | 1.0 | 0.00 | 0.00 | 0.00 | 56 | 1014.3 |
| 20260901061917 | 85 | 76 | 0.0 | 2.0 | 0.00 | 0.00 | 0.00 | 56 | 1014.5 |
| 20260901061413 | 85 | 91 | 0.0 | 1.0 | 0.00 | 0.00 | 0.00 | 55 | 1014.4 |
| 20260901060908 | 85 | 75 | 0.0 | 1.0 | 0.00 | 0.00 | 0.00 | 55 | 1014.4 |
| 20260901060403 | 86 | 75 | 0.0 | 1.0 | 0.00 | 0.00 | 0.00 | 55 | 1014.4 |
| 20260901055902 | 86 | 79 | 1.0 | 2.0 | 0.00 | 0.00 | 0.00 | 55 | 1014.1 |
| 20260901055359 | 86 | 81 | 1.0 | 2.0 | 0.00 | 0.00 | 0.00 | 56 | 1014.2 |
| 20260901054855 | 86 | 79 | 1.0 | 5.0 | 0.00 | 0.00 | 0.00 | 56 | 1013.9 |
| 20260901054353 | 86 | 78 | 1.0 | 3.0 | 0.00 | 0.00 | 0.00 | 56 | 1014.0 |
| 20260901053848 | 86 | 75 | 1.0 | 3.0 | 0.00 | 0.00 | 0.00 | 56 | 1014.0 |
| 20260901053343 | 86 | 69 | 0.0 | 2.0 | 0.00 | 0.00 | 0.00 | 57 | 1014.2 |
| 20260901052839 | 86 | 81 | 0.0 | 1.0 | 0.00 | 0.00 | 0.00 | 57 | 1014.0 |
| 20260901052334 | 86 | 102 | 0.0 | 1.0 | 0.00 | 0.00 | 0.00 | 57 | 1014.1 |
| 20260901051833 | 86 | 77 | 0.0 | 1.0 | 0.00 | 0.00 | 0.00 | 57 | 1013.8 |
| 20260901051328 | 86 | 73 | 1.0 | 2.0 | 0.00 | 0.00 | 0.00 | 57 | 1013.9 |
| 20260901050823 | 86 | 84 | 0.0 | 2.0 | 0.00 | 0.00 | 0.00 | 57 | 1013.7 |
| 20260901050318 | 86 | 77 | 0.0 | 1.0 | 0.00 | 0.00 | 0.00 | 56 | 1013.7 |
| 20260901045808 | 86 | 77 | 0.0 | 1.0 | 0.00 | 0.00 | 0.00 | 56 | 1013.7 |
| 20260901045308 | 86 | 75 | 0.0 | 1.0 | 0.00 | 0.00 | 0.00 | 56 | 1013.7 |
| 20260901044803 | 87 | 80 | 0.0 | 0.0 | 0.00 | 0.00 | 0.00 | 55 | 1013.7 |
| 20260901044259 | 87 | 80 | 0.0 | 1.0 | 0.00 | 0.00 | 0.00 | 55 | 1013.5 |
| 20260901043754 | 87 | 74 | 0.0 | 0.0 | 0.00 | 0.00 | 0.00 | 55 | 1013.4 |
| 20260901043250 | 87 | 72 | 0.0 | 1.0 | 0.00 | 0.00 | 0.00 | 55 | 1013.6 |
| 20260901042750 | 87 | 77 | 0.0 | 1.0 | 0.00 | 0.00 | 0.00 | 55 | 1013.5 |
| 20260901042245 | 87 | 77 | 0.0 | 1.0 | 0.00 | 0.00 | 0.00 | 54 | 1013.5 |
| 20260901041740 | 88 | 78 | 0.0 | 1.0 | 0.00 | 0.00 | 0.00 | 53 | 1013.6 |
| 20260901041241 | 88 | 77 | 0.0 | 2.0 | 0.00 | 0.00 | 0.00 | 52 | 1013.5 |
| 20260901040735 | 88 | 72 | 0.0 | 1.0 | 0.00 | 0.00 | 0.00 | 52 | 1013.5 |
| 20260901040234 | 88 | 76 | 0.0 | 0.0 | 0.00 | 0.00 | 0.00 | 52 | 1013.5 |
| 20260901035733 | 88 | 77 | 0.0 | 0.0 | 0.00 | 0.00 | 0.00 | 51 | 1013.5 |
| 20260901035232 | 88 | 79 | 0.0 | 1.0 | 0.00 | 0.00 | 0.00 | 51 | 1013.3 |
| 20260901034731 | 88 | 74 | 0.0 | 1.0 | 0.00 | 0.00 | 0.00 | 51 | 1013.6 |
| 20260901034227 | 88 | 72 | 0.0 | 0.0 | 0.00 | 0.00 | 0.00 | 51 | 1013.5 |
| 20260901033726 | 89 | 76 | 0.0 | 1.0 | 0.00 | 0.00 | 0.00 | 50 | 1013.4 |
| 20260901033225 | 89 | 76 | 0.0 | 1.0 | 0.00 | 0.00 | 0.00 | 50 | 1013.6 |
| 20260901032724 | 89 | 80 | 0.0 | 0.0 | 0.00 | 0.00 | 0.00 | 50 | 1013.3 |
| 20260901032219 | 89 | 76 | 0.0 | 0.0 | 0.00 | 0.00 | 0.00 | 50 | 1013.5 |
| 20260901031714 | 89 | 77 | 0.0 | 0.0 | 0.00 | 0.00 | 0.00 | 49 | 1013.4 |
| 20260901031210 | 90 | 81 | 0.0 | 0.0 | 0.00 | 0.00 | 0.00 | 49 | 1013.6 |
| 20260901030705 | 90 | 77 | 0.0 | 1.0 | 0.00 | 0.00 | 0.00 | 48 | 1013.3 |
| 20260901030204 | 90 | 67 | 1.0 | 1.0 | 0.00 | 0.00 | 0.00 | 49 | 1013.3 |
| 20260901025659 | 90 | 77 | 1.0 | 2.0 | 0.00 | 0.00 | 0.00 | 49 | 1013.4 |
| 20260901025154 | 90 | 77 | 0.0 | 2.0 | 0.00 | 0.00 | 0.00 | 48 | 1013.2 |
| 20260901024654 | 90 | 89 | 2.0 | 2.0 | 0.00 | 0.00 | 0.00 | 46 | 1013.2 |